Location: München
(48.1351°N, 11.5820°E)
Time: 16:44:07
(UTC+01:00)

ISS - Pass Details

Date: 24 January 2020
Orbit: 415 x 422 km, 51.6° (Epoch: 26 February)

Event Time Altitude Azimuth Distance (km) Brightness Sun altitude
Rises 19:56:22 0° 267° (W) 2,375 1.3 -29.2°
Reaches altitude 10° 19:58:31 10° 273° (W) 1,510 0.0 -29.5°
Enters shadow 19:59:23 16° 277° (W) 1,176 -0.7 -29.7°
